Miscellaneous Local Product
Issued by NWS North Platte, NE

Home | Current Version | Previous Version | Text Only | Print | Product List | Glossary On
Versions: 1 2 3 4 5 6 7 8 9 10 11 12 13 14 15 16 17 18 19 20 21 22 23 24 25 26 27 28 29 30 31 32 33 34 35 36 37 38 39 40 41 42 43 44 45 46 47 48 49 50
000
AXUS43 KLBF 281210
MISLBF


WESTERN AND NORTH CENTRAL NEBRASKA HOURLY WEATHER ROUNDUP
NATIONAL WEATHER SERVICE NORTH PLATTE NE
600 AM CST FRI NOV 28 2014

***STATIONS NOT REPORTING VARIABLES SUCH AS SKY/WEATHER OR
PRESSURE ARE PROVIDED BY THE NEBRASKA DEPARTMENT OF
ROADS...RAWS...AND APRS NETWORKS...AND ARE NOT UNDER
NATIONAL WEATHER SERVICE QUALITY CONTROL***

...OBSERVATIONS IN AND NEAR THE EASTERN PANHANDLE OF NEBRASKA...

CITY           SKY/WX    TMP DP  RH WIND       PRES   REMARKS
PINE RIDGE     PTCLDY    39  27  62 NW5       29.77F
CHADRON        PTCLDY   N/A N/A N/A W8        29.79S
ALLIANCE       PTCLDY    29  23  78 W6        29.83F WCI  23
SIDNEY         MOCLDY    32  25  75 W12       29.91F WCI  23
WHITECLAY        N/A     34  24  66 E10         N/A  WCI  26
CRESCENT LAKE    N/A     40  24  52 SW5         N/A
LISCO            N/A     29  23  78 CALM        N/A
BIG SPRINGS      N/A     33  29  84 W9          N/A  WCI  25
$$

...OBSERVATIONS IN NORTH CENTRAL NEBRASKA...

CITY           SKY/WX    TMP DP  RH WIND       PRES   REMARKS
VALENTINE      PTCLDY    30  27  88 W6        29.78F WCI  24
THEDFORD       PTCLDY    31  26  84 W3        29.83F
AINSWORTH      PTCLDY    34  27  75 SW8       29.78F WCI  27
O`NEILL        PTCLDY    27  23  85 SW6       29.79F WCI  20
ORD            PTCLDY    16  14  92 NW3       29.84F
BROKEN BOW     CLEAR     31  22  69 W6        29.84F WCI  25
BROWNLEE         N/A     38  28  66 S5          N/A  WCI  35
SPRINGVIEW       N/A     22  19  88 CALM        N/A
BREWSTER         N/A     30  27  86 CALM        N/A
SARGENT          N/A     18  15  86 CALM        N/A
COMSTOCK         N/A     34  27  75 W7          N/A  WCI  28
CHAMBERS         N/A     30  22  70 S6          N/A  WCI  24
EWING            N/A     24  20  85 CALM        N/A
$$

...OBSERVATIONS IN SOUTHWEST NEBRASKA AND FAR NORTHEAST COLORADO...

CITY           SKY/WX    TMP DP  RH WIND       PRES   REMARKS
WRAY           FAIR      35  26  69 SW10      29.92F WCI  27
HOLYOKE        FAIR      32  27  80 W7        29.91F WCI  26
IMPERIAL       PTCLDY    33  23  66 W5        29.90F WCI  29
OGALLALA       PTCLDY    27  24  91 W7        29.88F WCI  19
NORTH PLATTE   CLEAR     21  19  92 NW6       29.88F WCI  13
MCCOOK         PTCLDY    31  24  75 W6        29.90F WCI  25
LEXINGTON      CLEAR     24  20  86 W5        29.88F WCI  18
PAXTON           N/A     27  24  87 CALM        N/A
BRADY            N/A     26  22  86 CALM        N/A
GOTHENBURG       N/A     30  25  81 CALM        N/A
CALLAWAY         N/A     36  29  75 CALM        N/A
$$

...NORTH PLATTE AREA...

CITY           SKY/WX    TMP DP  RH WIND       PRES   REMARKS
AIRPORT        CLEAR     21  19  92 NW6       29.88F WCI  13
DOWNTOWN         N/A     26  23  89 CALM        N/A
$$

...SOME WEATHER OBSERVATIONS FROM AROUND THE REGION...

CITY           SKY/WX    TMP DP  RH WIND       PRES   REMARKS
DENVER         CLOUDY    48  15  26 S14       29.98F
LARAMIE        CLEAR     38  14  37 SW6       30.04F WCI  33
CHEYENNE       MOCLDY    48  15  26 W14       29.97F
SCOTTSBLUFF    PTCLDY    34  25  69 N7        29.85F WCI  28
RAPID CITY     PTCLDY    39  27  62 SE5       29.69F
PIERRE         CLOUDY    19  16  88 E5        29.74F WCI  12
WINNER         FAIR      44  29  55 S10       29.73F
SIOUX FALLS    CLOUDY    19  16  88 E5        29.85F WCI  12
OMAHA          PTCLDY    28  22  78 S12       29.94F WCI  18
GRAND ISLAND   PTCLDY    25  19  78 SW7       29.86F WCI  17
KANSAS CITY    PTCLDY    36  24  62 S16       30.02F WCI  26
WICHITA        PTCLDY    36  25  64 S14       30.01F WCI  27
HAYS           MOCLDY    32  21  64 SW7       29.94S WCI  26
LIBERAL        PTCLDY    28  21  74 CALM      30.00F
GOODLAND       PTCLDY    41  21  44 SW10      29.94F
$$



USA.gov is the U.S. government's official web portal to all federal, state and local government web resources and services.